Location: Newark
(44.2003°N, 3.2583°E)
Time: 07:47:46
(UTC+00:00)

Envisat - Pass Details

Date: 24 September 2019
Orbit: 764 x 766 km, 98.1° (Epoch: 21 October)

Event Time Altitude Azimuth Distance (km) Brightness Sun altitude
Rises 18:33:44 0° 188° (S) 3,219 6.2 -10.2°
Reaches altitude 10° 18:36:12 10° 197° (SSW) 2,297 5.6 -10.6°
Maximum altitude 18:40:51 36° 263° (W) 1,200 4.7 -11.4°
Drops below altitude 10° 18:45:32 10° 330° (NNW) 2,312 6.1 -12.2°
Sets 18:48:02 0° 339° (NNW) 3,243 6.7 -12.7°
